Location: Lac de la Montagne noire
(46.1952°N, 74.2701°W)
Time: 20:18:08
(UTC-04:00)

Envisat - Pass Details

Date: 26 March 2019
Orbit: 764 x 766 km, 98.2° (Epoch: 22 April)

Event Time Altitude Azimuth Distance (km) Brightness Sun altitude
Rises 20:30:02 0° 199° (SSW) 3,220 6.3 -13.1°
Reaches altitude 10° 20:32:44 10° 213° (SSW) 2,298 5.7 -13.6°
Maximum altitude 20:36:50 24° 267° (W) 1,534 5.4 -14.2°
Drops below altitude 10° 20:40:57 10° 322° (NW) 2,312 6.4 -14.9°
Sets 20:43:41 0° 335° (NNW) 3,243 7.0 -15.3°
